Date String (YYYY-MM-DD hh:mm:ss) UTC,Instrument flags,Ambient pressure (hPa),Sample flow (lpm),Bypass flow (lpm),Sample temperature (°C),Ambient temperature (°C),ASC tube jacket temperature (°C),LED temperature (°C),Box temperature (°C),Sample RH (%),Span deviation,Mass concentration (μg/m³),Mass concentration (μg/m³),Mass concentration (μg/m³)
DateTimeUTC,F1_M11,P_M11,Q1_M11,Q2_M11,T1_M11,T2_M11,T3_M11,T4_M11,T5_M11,U1_M11,ZSPAN_M11,X2_M11,X0_M11,X1_M11
2023-01-19 10:00:00,,0818.9,5.00,0.00,21.4,21.3,00.0,30.1,23.3,06.5,0000.0,0000.56,0002.00,0000.40
2023-01-19 10:01:00,,0818.9,5.01,0.00,21.6,22.5,00.0,30.2,23.6,06.6,0000.0,0000.55,0001.96,0000.40
2023-01-19 10:02:00,,0818.9,4.98,0.00,21.7,22.5,00.0,30.2,23.7,06.5,0000.0,0000.54,0001.92,0000.40
2023-01-19 10:03:00,,0818.9,4.99,0.00,21.8,22.0,00.0,30.3,23.7,06.4,0000.0,0000.53,0001.91,0000.40
2023-01-19 10:04:00,,0819.0,4.99,0.00,21.8,21.5,00.0,30.3,23.6,06.4,0000.0,0000.56,0001.99,0000.40
2023-01-19 10:05:00,,0819.0,5.00,0.00,21.8,21.1,00.0,30.3,23.5,06.3,0000.0,0000.54,0002.20,0000.41
2023-01-19 10:06:00,,0818.9,5.00,0.00,21.8,20.8,00.0,30.4,23.5,06.2,0000.0,0000.54,0002.43,0000.40
2023-01-19 10:07:00,,0819.0,5.00,0.00,21.8,20.6,00.0,30.4,23.4,05.9,0000.0,0000.56,0002.46,0000.41
2023-01-19 10:08:00,,0818.9,5.00,0.00,21.7,20.3,00.0,30.4,23.3,06.0,0000.0,0000.55,0002.45,0000.40
2023-01-19 10:09:00,,0819.0,5.02,0.00,21.7,20.2,00.0,30.4,23.3,06.1,0000.0,0000.57,0002.56,0000.40
2023-01-19 10:10:00,,0818.9,5.02,0.00,21.7,20.0,00.0,30.4,23.3,06.2,0000.0,0000.57,0002.49,0000.40
2023-01-19 10:11:00,,0818.9,5.02,0.00,21.7,20.0,00.0,30.4,23.2,06.3,0000.0,0000.58,0002.14,0000.40
2023-01-19 10:12:00,,0818.9,5.00,0.00,21.6,19.9,00.0,30.4,23.2,06.4,0000.0,0000.58,0002.15,0000.39
2023-01-19 10:13:00,,0818.9,5.00,0.00,21.6,19.7,00.0,30.4,23.1,06.4,0000.0,0000.58,0002.13,0000.39
2023-01-19 10:14:00,,0818.8,4.99,0.00,21.5,19.6,00.0,30.4,23.1,06.3,0000.0,0000.60,0002.25,0000.40
2023-01-19 10:15:00,,0818.9,5.02,0.00,21.6,20.6,00.0,30.3,23.2,05.7,0000.0,0000.60,0002.27,0000.39
2023-01-19 10:16:00,,0818.9,5.00,0.00,21.7,21.8,00.0,30.3,23.5,05.8,0000.0,0000.60,0002.02,0000.39
2023-01-19 10:17:00,,0818.9,5.02,0.00,21.8,22.3,00.0,30.4,23.7,05.9,0000.0,0000.59,0001.56,0000.39
2023-01-19 10:18:00,,0818.9,5.00,0.00,21.8,21.6,00.0,30.4,23.6,05.6,0000.0,0000.56,0001.49,0000.38
2023-01-19 10:19:00,,0818.9,5.00,0.00,21.8,21.2,00.0,30.5,23.5,05.6,0000.0,0000.56,0001.50,0000.39
2023-01-19 10:20:00,,0818.9,5.00,0.00,21.8,20.8,00.0,30.5,23.4,05.6,0000.0,0000.53,0001.36,0000.38
2023-01-19 10:21:00,,0818.9,5.00,0.00,21.8,20.5,00.0,30.5,23.4,05.8,0000.0,0000.50,0000.95,0000.37
2023-01-19 10:22:00,,0818.9,5.00,0.00,21.7,20.4,00.0,30.5,23.4,05.8,0000.0,0000.48,0000.91,0000.37
2023-01-19 10:23:00,,0818.9,5.00,0.00,21.7,20.2,00.0,30.5,23.3,05.7,0000.0,0000.47,0000.89,0000.37
2023-01-19 10:24:00,,0818.9,5.00,0.00,21.7,20.0,00.0,30.5,23.3,05.7,0000.0,0000.46,0000.86,0000.36
2023-01-19 10:25:00,,0819.0,5.01,0.00,21.6,19.9,00.0,30.5,23.2,05.7,0000.0,0000.44,0000.72,0000.35
2023-01-19 10:26:00,,0819.0,5.00,0.00,21.6,19.9,00.0,30.4,23.2,05.7,0000.0,0000.42,0001.88,0000.35
2023-01-19 10:27:00,,0818.9,5.00,0.00,21.6,19.9,00.0,30.4,23.2,05.7,0000.0,0000.42,0002.73,0000.35
2023-01-19 10:28:00,,0818.9,5.00,0.00,21.6,20.0,00.0,30.4,23.2,05.7,0000.0,0000.40,0002.70,0000.35
2023-01-19 10:29:00,,0818.9,4.99,0.00,21.7,21.1,00.0,30.4,23.4,05.6,0000.0,0000.43,0002.74,0000.35
2023-01-19 10:30:00,,0818.9,5.00,0.00,21.8,22.2,00.0,30.4,23.7,05.6,0000.0,0000.43,0002.90,0000.34
2023-01-19 10:31:00,,0818.9,4.99,0.00,21.9,22.6,00.0,30.5,23.9,05.5,0000.0,0000.45,0003.02,0000.34
2023-01-19 10:32:00,,0819.0,4.98,0.00,22.0,22.1,00.0,30.5,23.9,05.5,0000.0,0000.48,0003.13,0000.34
2023-01-19 10:33:00,,0818.9,5.00,0.00,22.0,21.6,00.0,30.6,23.8,05.6,0000.0,0000.51,0003.37,0000.35
2023-01-19 10:34:00,,0818.9,4.99,0.00,22.0,21.3,00.0,30.6,23.8,05.5,0000.0,0000.53,0003.43,0000.35
2023-01-19 10:35:00,,0818.9,5.02,0.00,22.0,21.1,00.0,30.6,23.7,05.5,0000.0,0000.55,0003.47,0000.34
2023-01-19 10:36:00,,0818.9,5.01,0.00,22.0,20.9,00.0,30.6,23.7,05.6,0000.0,0000.55,0003.46,0000.35
2023-01-19 10:37:00,,0818.9,4.98,0.00,22.0,20.7,00.0,30.6,23.6,05.7,0000.0,0000.58,0002.67,0000.35
2023-01-19 10:38:00,,0818.9,4.99,0.00,21.9,20.5,00.0,30.6,23.6,05.6,0000.0,0000.60,0001.64,0000.34
2023-01-19 10:39:00,,0819.0,4.99,0.00,21.9,20.4,00.0,30.6,23.6,05.6,0000.0,0000.61,0001.67,0000.35
2023-01-19 10:40:00,,0818.9,5.00,0.00,21.9,20.3,00.0,30.6,23.5,05.7,0000.0,0000.58,0001.61,0000.34
2023-01-19 10:41:00,,0818.8,5.00,0.00,21.9,20.3,00.0,30.6,23.5,05.7,0000.0,0000.58,0001.57,0000.34
2023-01-19 10:42:00,,0818.8,4.99,0.00,21.9,20.3,00.0,30.6,23.5,06.4,0000.0,0000.59,0001.94,0000.35
2023-01-19 10:43:00,,0818.7,5.02,0.00,21.8,20.2,00.0,30.6,23.4,06.7,0000.0,0000.63,0002.05,0000.36
2023-01-19 10:44:00,,0818.7,5.00,0.00,21.8,20.7,00.0,30.6,23.4,06.4,0000.0,0000.62,0001.87,0000.37
2023-01-19 10:45:00,,0818.5,5.01,0.00,21.9,21.8,00.0,30.6,23.7,06.3,0000.0,0000.62,0002.18,0000.37
2023-01-19 10:46:00,,0818.8,5.01,0.00,22.0,22.6,00.0,30.6,24.0,06.8,0000.0,0000.70,0004.90,0000.38
2023-01-19 10:47:00,,0818.9,4.98,0.00,22.1,22.2,00.0,30.7,24.0,06.4,0000.0,0000.78,0006.36,0000.38
2023-01-19 10:48:00,,0818.7,5.00,0.00,22.1,21.6,00.0,30.7,23.8,06.7,0000.0,0000.80,0006.58,0000.38
2023-01-19 10:49:00,,0818.7,5.00,0.00,22.0,20.9,00.0,30.7,23.7,07.3,0000.0,0000.87,0007.74,0000.40
2023-01-19 10:50:00,,0818.8,4.99,0.00,21.9,20.5,00.0,30.7,23.4,07.1,0000.0,0000.94,0009.14,0000.42
2023-01-19 10:51:00,,0818.8,4.98,0.00,21.9,20.3,00.0,30.7,23.3,06.8,0000.0,0001.01,0009.26,0000.43
2023-01-19 10:52:00,,0818.8,5.00,0.00,21.8,20.2,00.0,30.7,23.2,07.0,0000.0,0001.05,0009.82,0000.43
2023-01-19 10:53:00,,0818.7,4.99,0.00,21.8,20.1,00.0,30.7,23.2,07.1,0000.0,0001.06,0010.11,0000.44
2023-01-19 10:54:00,,0818.8,5.01,0.00,21.7,20.4,00.0,30.7,23.2,06.5,0000.0,0001.04,0010.11,0000.44
2023-01-19 10:55:00,,0818.8,5.01,0.00,21.8,21.5,00.0,30.6,23.5,06.3,0000.0,0001.01,0010.38,0000.43
2023-01-19 10:56:00,,0818.9,4.99,0.00,21.9,22.5,00.0,30.6,23.8,06.6,0000.0,0001.04,0010.32,0000.43
2023-01-19 10:57:00,,0819.0,5.00,0.00,22.1,22.9,00.0,30.7,24.0,06.7,0000.0,0000.97,0009.00,0000.43
2023-01-19 10:58:00,,0818.9,4.99,0.00,22.1,22.3,00.0,30.7,23.9,06.6,0000.0,0000.88,0008.21,0000.43
2023-01-19 10:59:00,,0818.9,5.01,0.00,22.1,21.5,00.0,30.7,23.7,06.5,0000.0,0000.84,0007.87,0000.42
